Year,Month,Day,Hour,Minute,Value (Times are PST for temperature in C)
2010,06,29,00,00,11.80
2010,06,29,00,01,11.80
2010,06,29,00,02,11.70
2010,06,29,00,03,11.70
2010,06,29,00,04,11.70
2010,06,29,00,05,11.70
2010,06,29,00,06,11.70
2010,06,29,00,07,11.60
2010,06,29,00,08,11.60
2010,06,29,00,09,11.60
2010,06,29,00,10,11.60
2010,06,29,00,11,11.50
2010,06,29,00,12,11.50
2010,06,29,00,13,11.50
2010,06,29,00,14,11.50
2010,06,29,00,15,11.60
2010,06,29,00,16,11.50
2010,06,29,00,17,11.50
2010,06,29,00,18,11.50
2010,06,29,00,19,11.50
2010,06,29,00,20,11.40
2010,06,29,00,21,11.40
2010,06,29,00,22,11.40
2010,06,29,00,23,11.40
2010,06,29,00,24,11.40
2010,06,29,00,25,11.40
2010,06,29,00,26,11.40
2010,06,29,00,27,11.30
2010,06,29,00,28,11.30
2010,06,29,00,29,11.30
2010,06,29,00,30,11.30
2010,06,29,00,31,11.30
2010,06,29,00,32,11.30
2010,06,29,00,33,11.30
2010,06,29,00,34,11.30
2010,06,29,00,35,11.30
2010,06,29,00,36,11.30
2010,06,29,00,37,11.30
2010,06,29,00,38,11.30
2010,06,29,00,39,11.30
2010,06,29,00,40,11.30
2010,06,29,00,41,11.30
2010,06,29,00,42,11.30
2010,06,29,00,43,11.30
2010,06,29,00,44,11.40
2010,06,29,00,45,11.40
2010,06,29,00,46,11.30
2010,06,29,00,47,11.30
2010,06,29,00,48,11.30
2010,06,29,00,49,11.30
2010,06,29,00,50,11.30
2010,06,29,00,51,11.30
2010,06,29,00,52,11.30
2010,06,29,00,53,11.20
2010,06,29,00,54,11.20
2010,06,29,00,55,11.20
2010,06,29,00,56,11.20
2010,06,29,00,57,11.20
2010,06,29,00,58,11.20
2010,06,29,00,59,11.20
2010,06,29,01,00,11.20
2010,06,29,01,01,11.20
2010,06,29,01,02,11.20
2010,06,29,01,03,11.20
2010,06,29,01,04,11.20
2010,06,29,01,05,11.20
2010,06,29,01,06,11.20
2010,06,29,01,07,11.20
2010,06,29,01,08,11.20
2010,06,29,01,09,11.20
2010,06,29,01,10,11.20
2010,06,29,01,11,11.20
2010,06,29,01,12,11.20
2010,06,29,01,13,11.30
2010,06,29,01,14,11.30
2010,06,29,01,15,11.30
2010,06,29,01,16,11.20
2010,06,29,01,17,11.20
2010,06,29,01,18,11.20
2010,06,29,01,19,11.20
2010,06,29,01,20,11.20
2010,06,29,01,21,11.20
2010,06,29,01,22,11.20
2010,06,29,01,23,11.20
2010,06,29,01,24,11.20
2010,06,29,01,25,11.20
2010,06,29,01,26,11.20
2010,06,29,01,27,11.20
2010,06,29,01,28,11.20
2010,06,29,01,29,11.20
2010,06,29,01,30,11.20
2010,06,29,01,31,11.20
2010,06,29,01,32,11.20
2010,06,29,01,33,11.20
2010,06,29,01,34,11.20
2010,06,29,01,35,11.20
2010,06,29,01,36,11.20
2010,06,29,01,37,11.20
2010,06,29,01,38,11.20
2010,06,29,01,39,11.20
2010,06,29,01,40,11.20
2010,06,29,01,41,11.20
2010,06,29,01,42,11.10
2010,06,29,01,43,11.10
2010,06,29,01,44,11.10
2010,06,29,01,45,11.10
2010,06,29,01,46,11.10
2010,06,29,01,47,11.10
2010,06,29,01,48,11.20
2010,06,29,01,49,11.20
2010,06,29,01,50,11.20
2010,06,29,01,51,11.20
2010,06,29,01,52,11.20
2010,06,29,01,53,11.20
2010,06,29,01,54,11.30
2010,06,29,01,55,11.20
2010,06,29,01,56,11.20
2010,06,29,01,57,11.20
2010,06,29,01,58,11.20
2010,06,29,01,59,11.20
2010,06,29,02,00,11.20
2010,06,29,02,01,11.20
2010,06,29,02,02,11.20
2010,06,29,02,03,11.20
2010,06,29,02,04,11.20
2010,06,29,02,05,11.20
2010,06,29,02,06,11.20
2010,06,29,02,07,11.20
2010,06,29,02,08,11.20
2010,06,29,02,09,11.20
2010,06,29,02,10,11.20
2010,06,29,02,11,11.20
2010,06,29,02,12,11.20
2010,06,29,02,13,11.20
2010,06,29,02,14,11.10
2010,06,29,02,15,11.10
2010,06,29,02,16,11.10
2010,06,29,02,17,11.10
2010,06,29,02,18,11.10
2010,06,29,02,19,11.10
2010,06,29,02,20,11.10
2010,06,29,02,21,11.10
2010,06,29,02,22,11.10
2010,06,29,02,23,11.10
2010,06,29,02,24,11.10
2010,06,29,02,25,11.10
2010,06,29,02,26,11.10
2010,06,29,02,27,11.10
2010,06,29,02,28,11.10
2010,06,29,02,29,11.10
2010,06,29,02,30,11.10
2010,06,29,02,31,11.10
2010,06,29,02,32,11.00
2010,06,29,02,33,11.00
2010,06,29,02,34,10.90
2010,06,29,02,35,10.90
2010,06,29,02,36,10.80
2010,06,29,02,37,10.80
2010,06,29,02,38,10.80
2010,06,29,02,39,10.80
2010,06,29,02,40,10.80
2010,06,29,02,41,10.80
2010,06,29,02,42,10.80
2010,06,29,02,43,10.80
2010,06,29,02,44,10.70
2010,06,29,02,45,10.70
2010,06,29,02,46,10.70
2010,06,29,02,47,10.70
2010,06,29,02,48,10.60
2010,06,29,02,49,10.60
2010,06,29,02,50,10.60
2010,06,29,02,51,10.60
2010,06,29,02,52,10.60
2010,06,29,02,53,10.60
2010,06,29,02,54,10.60
2010,06,29,02,55,10.60
2010,06,29,02,56,10.60
2010,06,29,02,57,10.60
2010,06,29,02,58,10.50
2010,06,29,02,59,10.50
2010,06,29,03,00,10.50
2010,06,29,03,01,10.40
2010,06,29,03,02,10.40
2010,06,29,03,03,10.40
2010,06,29,03,04,10.30
2010,06,29,03,05,10.30
2010,06,29,03,06,10.30
2010,06,29,03,07,10.30
2010,06,29,03,08,10.30
2010,06,29,03,09,10.20
2010,06,29,03,10,10.20
2010,06,29,03,11,10.20
2010,06,29,03,12,10.20
2010,06,29,03,13,10.20
2010,06,29,03,14,10.20
2010,06,29,03,15,10.20
2010,06,29,03,16,10.20
2010,06,29,03,17,10.10
2010,06,29,03,18,10.10
2010,06,29,03,19,10.10
2010,06,29,03,20,10.10
2010,06,29,03,21,10.10
2010,06,29,03,22,10.10
2010,06,29,03,23,10.10
2010,06,29,03,24,10.00
2010,06,29,03,25,10.00
2010,06,29,03,26,10.00
2010,06,29,03,27,9.90
2010,06,29,03,28,9.90
2010,06,29,03,29,9.90
2010,06,29,03,30,9.80
2010,06,29,03,31,9.80
2010,06,29,03,32,9.80
2010,06,29,03,33,9.80
2010,06,29,03,34,9.80
2010,06,29,03,35,9.70
2010,06,29,03,36,9.70
2010,06,29,03,37,9.70
2010,06,29,03,38,9.60
2010,06,29,03,39,9.60
2010,06,29,03,40,9.60
2010,06,29,03,41,9.60
2010,06,29,03,42,9.60
2010,06,29,03,43,9.60
2010,06,29,03,44,9.60
2010,06,29,03,45,9.60
2010,06,29,03,46,9.60
2010,06,29,03,47,9.60
2010,06,29,03,48,9.60
2010,06,29,03,49,9.60
2010,06,29,03,50,9.60
2010,06,29,03,51,9.60
2010,06,29,03,52,9.60
2010,06,29,03,53,9.60
2010,06,29,03,54,9.60
2010,06,29,03,55,9.60
2010,06,29,03,56,9.60
2010,06,29,03,57,9.60
2010,06,29,03,58,9.60
2010,06,29,03,59,9.60
2010,06,29,04,00,9.60
2010,06,29,04,01,9.60
2010,06,29,04,02,9.60
2010,06,29,04,03,9.60
2010,06,29,04,04,9.60
2010,06,29,04,05,9.60
2010,06,29,04,06,9.60
2010,06,29,04,07,9.60
2010,06,29,04,08,9.60
2010,06,29,04,09,9.60
2010,06,29,04,10,9.60
2010,06,29,04,11,9.60
2010,06,29,04,12,9.60
2010,06,29,04,13,9.50
2010,06,29,04,14,9.50
2010,06,29,04,15,9.40
2010,06,29,04,16,9.40
2010,06,29,04,17,9.50
2010,06,29,04,18,9.50
2010,06,29,04,19,9.50
2010,06,29,04,20,9.50
2010,06,29,04,21,9.40
2010,06,29,04,22,9.40
2010,06,29,04,23,9.40
2010,06,29,04,24,9.30
2010,06,29,04,25,9.30
2010,06,29,04,26,9.30
2010,06,29,04,27,9.30
2010,06,29,04,28,9.30
2010,06,29,04,29,9.30
2010,06,29,04,30,9.30
2010,06,29,04,31,9.30
2010,06,29,04,32,9.30
2010,06,29,04,33,9.30
2010,06,29,04,34,9.30
2010,06,29,04,35,9.40
2010,06,29,04,36,9.40
2010,06,29,04,37,9.40
2010,06,29,04,38,9.40
2010,06,29,04,39,9.30
2010,06,29,04,40,9.30
2010,06,29,04,41,9.30
2010,06,29,04,42,9.30
2010,06,29,04,43,9.20
2010,06,29,04,44,9.20
2010,06,29,04,45,9.20
2010,06,29,04,46,9.20
2010,06,29,04,47,9.20
2010,06,29,04,48,9.10
2010,06,29,04,49,9.10
2010,06,29,04,50,9.00
2010,06,29,04,51,9.00
2010,06,29,04,52,8.90
2010,06,29,04,53,8.90
2010,06,29,04,54,8.80
2010,06,29,04,55,8.80
2010,06,29,04,56,8.70
2010,06,29,04,57,8.70
2010,06,29,04,58,8.60
2010,06,29,04,59,8.60
2010,06,29,05,00,8.50
2010,06,29,05,01,8.40
2010,06,29,05,02,8.40
2010,06,29,05,03,8.40
2010,06,29,05,04,8.40
2010,06,29,05,05,8.30
2010,06,29,05,06,8.30
2010,06,29,05,07,8.20
2010,06,29,05,08,8.20
2010,06,29,05,09,8.30
2010,06,29,05,10,8.30
2010,06,29,05,11,8.30
2010,06,29,05,12,8.30
2010,06,29,05,13,8.30
2010,06,29,05,14,8.30
2010,06,29,05,15,8.40
2010,06,29,05,16,8.50
2010,06,29,05,17,8.60
2010,06,29,05,18,8.60
2010,06,29,05,19,8.60
2010,06,29,05,20,8.60
2010,06,29,05,21,8.60
2010,06,29,05,22,8.60
2010,06,29,05,23,8.50
2010,06,29,05,24,8.50
2010,06,29,05,25,8.40
2010,06,29,05,26,8.40
2010,06,29,05,27,8.40
2010,06,29,05,28,8.40
2010,06,29,05,29,8.40
2010,06,29,05,30,8.40
2010,06,29,05,31,8.30
2010,06,29,05,32,8.20
2010,06,29,05,33,8.20
2010,06,29,05,34,8.10
2010,06,29,05,35,8.00
2010,06,29,05,36,7.90
2010,06,29,05,37,7.90
2010,06,29,05,38,7.90
2010,06,29,05,39,8.00
2010,06,29,05,40,8.10
2010,06,29,05,41,8.10
2010,06,29,05,42,8.20
2010,06,29,05,43,8.20
2010,06,29,05,44,8.20
2010,06,29,05,45,8.20
2010,06,29,05,46,8.20
2010,06,29,05,47,8.20
2010,06,29,05,48,8.20
2010,06,29,05,49,8.20
2010,06,29,05,50,8.20
2010,06,29,05,51,8.20
2010,06,29,05,52,8.20
2010,06,29,05,53,8.20
2010,06,29,05,54,8.20
2010,06,29,05,55,8.10
2010,06,29,05,56,8.10
2010,06,29,05,57,8.10
2010,06,29,05,58,8.10
2010,06,29,05,59,8.20
2010,06,29,06,00,8.20
2010,06,29,06,01,8.20
2010,06,29,06,02,8.30
2010,06,29,06,03,8.30
2010,06,29,06,04,8.40
2010,06,29,06,05,8.40
2010,06,29,06,06,8.50
2010,06,29,06,07,8.50
2010,06,29,06,08,8.60
2010,06,29,06,09,8.60
2010,06,29,06,10,8.60
2010,06,29,06,11,8.60
2010,06,29,06,12,8.70
2010,06,29,06,13,8.80
2010,06,29,06,14,8.80
2010,06,29,06,15,8.90
2010,06,29,06,16,8.90
2010,06,29,06,17,9.00
2010,06,29,06,18,9.00
2010,06,29,06,19,9.00
2010,06,29,06,20,9.10
2010,06,29,06,21,9.00
2010,06,29,06,22,9.00
2010,06,29,06,23,9.00
2010,06,29,06,24,8.90
2010,06,29,06,25,9.00
2010,06,29,06,26,9.00
2010,06,29,06,27,9.10
2010,06,29,06,28,9.20
2010,06,29,06,29,9.20
2010,06,29,06,30,9.30
2010,06,29,06,31,9.40
2010,06,29,06,32,9.40
2010,06,29,06,33,9.50
2010,06,29,06,34,9.50
2010,06,29,06,35,9.50
2010,06,29,06,36,9.40
2010,06,29,06,37,9.40
2010,06,29,06,38,9.40
2010,06,29,06,39,9.30
2010,06,29,06,40,9.30
2010,06,29,06,41,9.30
2010,06,29,06,42,9.30
2010,06,29,06,43,9.30
2010,06,29,06,44,9.30
2010,06,29,06,45,9.40
2010,06,29,06,46,9.50
2010,06,29,06,47,9.50
2010,06,29,06,48,9.60
2010,06,29,06,49,9.60
2010,06,29,06,50,9.70
2010,06,29,06,51,9.70
2010,06,29,06,52,9.80
2010,06,29,06,53,9.80
2010,06,29,06,54,9.90
2010,06,29,06,55,9.90
2010,06,29,06,56,9.90
2010,06,29,06,57,10.00
2010,06,29,06,58,10.00
2010,06,29,06,59,10.10
2010,06,29,07,00,10.10
2010,06,29,07,01,10.20
2010,06,29,07,02,10.20
2010,06,29,07,03,10.30
2010,06,29,07,04,10.30
2010,06,29,07,05,10.40
2010,06,29,07,06,10.50
2010,06,29,07,07,10.50
2010,06,29,07,08,10.60
2010,06,29,07,09,10.60
2010,06,29,07,10,10.70
2010,06,29,07,11,10.70
2010,06,29,07,12,10.80
2010,06,29,07,13,10.80
2010,06,29,07,14,10.80
2010,06,29,07,15,10.90
2010,06,29,07,16,10.90
2010,06,29,07,17,11.00
2010,06,29,07,18,11.10
2010,06,29,07,19,11.10
2010,06,29,07,20,11.10
2010,06,29,07,21,11.20
2010,06,29,07,22,11.20
2010,06,29,07,23,11.20
2010,06,29,07,24,11.20
2010,06,29,07,25,11.30
2010,06,29,07,26,11.30
2010,06,29,07,27,11.30
2010,06,29,07,28,11.30
2010,06,29,07,29,11.40
2010,06,29,07,30,11.40
2010,06,29,07,31,11.50
2010,06,29,07,32,11.60
2010,06,29,07,33,11.60
2010,06,29,07,34,11.70
2010,06,29,07,35,11.80
2010,06,29,07,36,11.80
2010,06,29,07,37,11.90
2010,06,29,07,38,12.00
2010,06,29,07,39,12.00
2010,06,29,07,40,12.10
2010,06,29,07,41,12.10
2010,06,29,07,42,12.10
2010,06,29,07,43,12.20
2010,06,29,07,44,12.30
2010,06,29,07,45,12.30
2010,06,29,07,46,12.30
2010,06,29,07,47,12.40
2010,06,29,07,48,12.40
2010,06,29,07,49,12.50
2010,06,29,07,50,12.50
2010,06,29,07,51,12.60
2010,06,29,07,52,12.70
2010,06,29,07,53,12.70
2010,06,29,07,54,12.80
2010,06,29,07,55,12.90
2010,06,29,07,56,13.00
2010,06,29,07,57,13.10
2010,06,29,07,58,13.20
2010,06,29,07,59,13.40
2010,06,29,08,00,13.50
2010,06,29,08,01,13.70
2010,06,29,08,02,13.80
2010,06,29,08,03,14.00
2010,06,29,08,04,14.10
2010,06,29,08,05,14.10
2010,06,29,08,06,14.20
2010,06,29,08,07,14.10
2010,06,29,08,08,14.10
2010,06,29,08,09,14.10
2010,06,29,08,10,14.10
2010,06,29,08,11,14.10
2010,06,29,08,12,14.10
2010,06,29,08,13,14.00
2010,06,29,08,14,13.90
2010,06,29,08,15,13.80
2010,06,29,08,16,13.80
2010,06,29,08,17,13.90
2010,06,29,08,18,13.90
2010,06,29,08,19,13.90
2010,06,29,08,20,13.90
2010,06,29,08,21,13.80
2010,06,29,08,22,13.70
2010,06,29,08,23,13.70
2010,06,29,08,24,13.60
2010,06,29,08,25,13.50
2010,06,29,08,26,13.50
2010,06,29,08,27,13.50
2010,06,29,08,28,13.60
2010,06,29,08,29,13.60
2010,06,29,08,30,13.70
2010,06,29,08,31,13.70
2010,06,29,08,32,13.70
2010,06,29,08,33,13.70
2010,06,29,08,34,13.70
2010,06,29,08,35,13.80
2010,06,29,08,36,13.80
2010,06,29,08,37,13.80
2010,06,29,08,38,13.80
2010,06,29,08,39,13.80
2010,06,29,08,40,13.90
2010,06,29,08,41,14.00
2010,06,29,08,42,14.00
2010,06,29,08,43,14.10
2010,06,29,08,44,14.10
2010,06,29,08,45,14.20
2010,06,29,08,46,14.20
2010,06,29,08,47,14.30
2010,06,29,08,48,14.30
2010,06,29,08,49,14.40
2010,06,29,08,50,14.40
2010,06,29,08,51,14.50
2010,06,29,08,52,14.60
2010,06,29,08,53,14.70
2010,06,29,08,54,14.70
2010,06,29,08,55,14.70
2010,06,29,08,56,14.70
2010,06,29,08,57,14.80
2010,06,29,08,58,14.80
2010,06,29,08,59,14.80
2010,06,29,09,00,14.80
2010,06,29,09,01,14.80
2010,06,29,09,02,14.80
2010,06,29,09,03,14.80
2010,06,29,09,04,14.80
2010,06,29,09,05,14.80
2010,06,29,09,06,14.70
2010,06,29,09,07,14.70
2010,06,29,09,08,14.70
2010,06,29,09,09,14.70
2010,06,29,09,10,14.60
2010,06,29,09,11,14.60
2010,06,29,09,12,14.60
2010,06,29,09,13,14.70
2010,06,29,09,14,14.70
2010,06,29,09,15,14.70
2010,06,29,09,16,14.60
2010,06,29,09,17,14.60
2010,06,29,09,18,14.60
2010,06,29,09,19,14.60
2010,06,29,09,20,14.70
2010,06,29,09,21,14.70
2010,06,29,09,22,14.70
2010,06,29,09,23,14.70
2010,06,29,09,24,14.80
2010,06,29,09,25,14.90
2010,06,29,09,26,15.00
2010,06,29,09,27,15.00
2010,06,29,09,28,15.00
2010,06,29,09,29,15.20
2010,06,29,09,30,15.30
2010,06,29,09,31,15.40
2010,06,29,09,32,15.50
2010,06,29,09,33,15.60
2010,06,29,09,34,15.60
2010,06,29,09,35,15.60
2010,06,29,09,36,15.70
2010,06,29,09,37,15.70
2010,06,29,09,38,15.70
2010,06,29,09,39,15.80
2010,06,29,09,40,15.90
2010,06,29,09,41,15.90
2010,06,29,09,42,15.90
2010,06,29,09,43,15.90
2010,06,29,09,44,16.00
2010,06,29,09,45,16.10
2010,06,29,09,46,16.20
2010,06,29,09,47,16.20
2010,06,29,09,48,16.20
2010,06,29,09,49,16.20
2010,06,29,09,50,16.20
2010,06,29,09,51,16.30
2010,06,29,09,52,16.30
2010,06,29,09,53,16.30
2010,06,29,09,54,16.30
2010,06,29,09,55,16.30
2010,06,29,09,56,16.30
2010,06,29,09,57,16.40
2010,06,29,09,58,16.40
2010,06,29,09,59,16.40
2010,06,29,10,00,16.40
2010,06,29,10,01,16.40
2010,06,29,10,02,16.40
2010,06,29,10,03,16.30
2010,06,29,10,04,16.30
2010,06,29,10,05,16.20
2010,06,29,10,06,16.20
2010,06,29,10,07,16.20
2010,06,29,10,08,16.20
2010,06,29,10,09,16.20
2010,06,29,10,10,16.20
2010,06,29,10,11,16.10
2010,06,29,10,12,16.00
2010,06,29,10,13,15.90
2010,06,29,10,14,15.70
2010,06,29,10,15,15.50
2010,06,29,10,16,15.40
2010,06,29,10,17,15.40
2010,06,29,10,18,15.30
2010,06,29,10,19,15.30
2010,06,29,10,20,15.20
2010,06,29,10,21,15.10
2010,06,29,10,22,15.00
2010,06,29,10,23,14.70
2010,06,29,10,24,14.60
2010,06,29,10,25,14.50
2010,06,29,10,26,14.40
2010,06,29,10,27,14.40
2010,06,29,10,28,14.40
2010,06,29,10,29,14.40
2010,06,29,10,30,14.40
2010,06,29,10,31,14.40
2010,06,29,10,32,14.40
2010,06,29,10,33,14.50
2010,06,29,10,34,14.50
2010,06,29,10,35,14.60
2010,06,29,10,36,14.60
2010,06,29,10,37,14.60
2010,06,29,10,38,14.70
2010,06,29,10,39,14.70
2010,06,29,10,40,14.70
2010,06,29,10,41,14.80
2010,06,29,10,42,14.90
2010,06,29,10,43,15.00
2010,06,29,10,44,15.00
2010,06,29,10,45,15.00
2010,06,29,10,46,15.00
2010,06,29,10,47,15.00
2010,06,29,10,48,15.00
2010,06,29,10,49,15.00
2010,06,29,10,50,15.00
2010,06,29,10,51,15.00
2010,06,29,10,52,14.90
2010,06,29,10,53,14.90
2010,06,29,10,54,14.90
2010,06,29,10,55,15.00
2010,06,29,10,56,15.00
2010,06,29,10,57,15.00
2010,06,29,10,58,15.10
2010,06,29,10,59,15.20
2010,06,29,11,00,15.20
2010,06,29,11,01,15.20
2010,06,29,11,02,15.20
2010,06,29,11,03,15.20
2010,06,29,11,04,15.30
2010,06,29,11,05,15.40
2010,06,29,11,06,15.60
2010,06,29,11,07,15.70
2010,06,29,11,08,15.80
2010,06,29,11,09,15.80
2010,06,29,11,10,15.70
2010,06,29,11,11,15.70
2010,06,29,11,12,15.70
2010,06,29,11,13,15.60
2010,06,29,11,14,15.60
2010,06,29,11,15,15.60
2010,06,29,11,16,15.50
2010,06,29,11,17,15.50
2010,06,29,11,18,15.40
2010,06,29,11,19,15.40
2010,06,29,11,20,15.40
2010,06,29,11,21,15.30
2010,06,29,11,22,15.30
2010,06,29,11,23,15.20
2010,06,29,11,24,15.10
2010,06,29,11,25,15.00
2010,06,29,11,26,15.00
2010,06,29,11,27,15.00
2010,06,29,11,28,14.90
2010,06,29,11,29,14.80
2010,06,29,11,30,14.80
2010,06,29,11,31,14.80
2010,06,29,11,32,14.80
2010,06,29,11,33,14.60
2010,06,29,11,34,14.60
2010,06,29,11,35,14.60
2010,06,29,11,36,14.60
2010,06,29,11,37,14.70
2010,06,29,11,38,14.70
2010,06,29,11,39,14.70
2010,06,29,11,40,14.80
2010,06,29,11,41,14.80
2010,06,29,11,42,14.70
2010,06,29,11,43,14.70
2010,06,29,11,44,14.60
2010,06,29,11,45,14.60
2010,06,29,11,46,14.60
2010,06,29,11,47,14.50
2010,06,29,11,48,14.40
2010,06,29,11,49,14.40
2010,06,29,11,50,14.40
2010,06,29,11,51,14.30
2010,06,29,11,52,14.30
2010,06,29,11,53,14.40
2010,06,29,11,54,14.40
2010,06,29,11,55,14.40
2010,06,29,11,56,14.50
2010,06,29,11,57,14.50
2010,06,29,11,58,14.50
2010,06,29,11,59,14.50
2010,06,29,12,00,14.50
2010,06,29,12,01,14.60
2010,06,29,12,02,14.70
2010,06,29,12,03,14.90
2010,06,29,12,04,15.00
2010,06,29,12,05,15.00
2010,06,29,12,06,15.10
2010,06,29,12,07,15.20
2010,06,29,12,08,15.20
2010,06,29,12,09,15.20
2010,06,29,12,10,15.10
2010,06,29,12,11,15.00
2010,06,29,12,12,15.00
2010,06,29,12,13,15.10
2010,06,29,12,14,15.10
2010,06,29,12,15,15.20
2010,06,29,12,16,15.20
2010,06,29,12,17,15.10
2010,06,29,12,18,15.10
2010,06,29,12,19,15.10
2010,06,29,12,20,15.10
2010,06,29,12,21,15.10
2010,06,29,12,22,15.20
2010,06,29,12,23,15.30
2010,06,29,12,24,15.40
2010,06,29,12,25,15.40
2010,06,29,12,26,15.40
2010,06,29,12,27,15.40
2010,06,29,12,28,15.50
2010,06,29,12,29,15.50
2010,06,29,12,30,15.40
2010,06,29,12,31,15.40
2010,06,29,12,32,15.40
2010,06,29,12,33,15.40
2010,06,29,12,34,15.30
2010,06,29,12,35,15.30
2010,06,29,12,36,15.20
2010,06,29,12,37,15.20
2010,06,29,12,38,15.30
2010,06,29,12,39,15.30
2010,06,29,12,40,15.30
2010,06,29,12,41,15.30
2010,06,29,12,42,15.40
2010,06,29,12,43,15.40
2010,06,29,12,44,15.50
2010,06,29,12,45,15.50
2010,06,29,12,46,15.50
2010,06,29,12,47,15.50
2010,06,29,12,48,15.50
2010,06,29,12,49,15.40
2010,06,29,12,50,15.30
2010,06,29,12,51,15.20
2010,06,29,12,52,15.20
2010,06,29,12,53,15.20
2010,06,29,12,54,15.30
2010,06,29,12,55,15.40
2010,06,29,12,56,15.60
2010,06,29,12,57,15.70
2010,06,29,12,58,15.80
2010,06,29,12,59,15.90
2010,06,29,13,00,15.80
2010,06,29,13,01,15.80
2010,06,29,13,02,15.80
2010,06,29,13,03,15.80
2010,06,29,13,04,15.80
2010,06,29,13,05,15.60
2010,06,29,13,06,15.50
2010,06,29,13,07,15.40
2010,06,29,13,08,15.30
2010,06,29,13,09,15.20
2010,06,29,13,10,15.00
2010,06,29,13,11,15.00
2010,06,29,13,12,15.00
2010,06,29,13,13,15.00
2010,06,29,13,14,15.00
2010,06,29,13,15,15.00
2010,06,29,13,16,15.00
2010,06,29,13,17,15.00
2010,06,29,13,18,15.00
2010,06,29,13,19,15.00
2010,06,29,13,20,15.00
2010,06,29,13,21,15.00
2010,06,29,13,22,15.00
2010,06,29,13,23,15.00
2010,06,29,13,24,15.00
2010,06,29,13,25,15.00
2010,06,29,13,26,15.00
2010,06,29,13,27,15.00
2010,06,29,13,28,15.00
2010,06,29,13,29,15.00
2010,06,29,13,30,15.10
2010,06,29,13,31,15.20
2010,06,29,13,32,15.20
2010,06,29,13,33,15.30
2010,06,29,13,34,15.20
2010,06,29,13,35,15.10
2010,06,29,13,36,15.00
2010,06,29,13,37,15.00
2010,06,29,13,38,15.00
2010,06,29,13,39,14.90
2010,06,29,13,40,14.80
2010,06,29,13,41,14.80
2010,06,29,13,42,14.70
2010,06,29,13,43,14.70
2010,06,29,13,44,14.70
2010,06,29,13,45,14.60
2010,06,29,13,46,14.60
2010,06,29,13,47,14.70
2010,06,29,13,48,14.70
2010,06,29,13,49,14.80
2010,06,29,13,50,14.80
2010,06,29,13,51,14.90
2010,06,29,13,52,14.90
2010,06,29,13,53,14.80
2010,06,29,13,54,14.80
2010,06,29,13,55,14.80
2010,06,29,13,56,14.80
2010,06,29,13,57,14.90
2010,06,29,13,58,14.90
2010,06,29,13,59,15.00
2010,06,29,14,00,15.00
2010,06,29,14,01,15.00
2010,06,29,14,02,15.00
2010,06,29,14,03,15.00
2010,06,29,14,04,15.00
2010,06,29,14,05,15.00
2010,06,29,14,06,15.00
2010,06,29,14,07,15.00
2010,06,29,14,08,15.00
2010,06,29,14,09,15.00
2010,06,29,14,10,14.90
2010,06,29,14,11,14.80
2010,06,29,14,12,14.70
2010,06,29,14,13,14.70
2010,06,29,14,14,14.70
2010,06,29,14,15,14.70
2010,06,29,14,16,14.60
2010,06,29,14,17,14.60
2010,06,29,14,18,14.60
2010,06,29,14,19,14.50
2010,06,29,14,20,14.40
2010,06,29,14,21,14.30
2010,06,29,14,22,14.30
2010,06,29,14,23,14.30
2010,06,29,14,24,14.20
2010,06,29,14,25,14.20
2010,06,29,14,26,14.20
2010,06,29,14,27,14.20
2010,06,29,14,28,14.30
2010,06,29,14,29,14.30
2010,06,29,14,30,14.30
2010,06,29,14,31,14.30
2010,06,29,14,32,14.40
2010,06,29,14,33,14.40
2010,06,29,14,34,14.30
2010,06,29,14,35,14.30
2010,06,29,14,36,14.30
2010,06,29,14,37,14.30
2010,06,29,14,38,14.30
2010,06,29,14,39,14.20
2010,06,29,14,40,14.20
2010,06,29,14,41,14.10
2010,06,29,14,42,14.00
2010,06,29,14,43,13.90
2010,06,29,14,44,13.90
2010,06,29,14,45,13.80
2010,06,29,14,46,13.80
2010,06,29,14,47,13.80
2010,06,29,14,48,13.80
2010,06,29,14,49,13.80
2010,06,29,14,50,13.80
2010,06,29,14,51,13.80
2010,06,29,14,52,13.80
2010,06,29,14,53,13.80
2010,06,29,14,54,13.80
2010,06,29,14,55,13.80
2010,06,29,14,56,13.70
2010,06,29,14,57,13.70
2010,06,29,14,58,13.60
2010,06,29,14,59,13.60
2010,06,29,15,00,13.50
2010,06,29,15,01,13.50
2010,06,29,15,02,13.50
2010,06,29,15,03,13.50
2010,06,29,15,04,13.50
2010,06,29,15,05,13.50
2010,06,29,15,06,13.60
2010,06,29,15,07,13.60
2010,06,29,15,08,13.60
2010,06,29,15,09,13.60
2010,06,29,15,10,13.60
2010,06,29,15,11,13.60
2010,06,29,15,12,13.70
2010,06,29,15,13,13.70
2010,06,29,15,14,13.70
2010,06,29,15,15,13.80
2010,06,29,15,16,13.80
2010,06,29,15,17,13.90
2010,06,29,15,18,13.90
2010,06,29,15,19,13.90
2010,06,29,15,20,13.80
2010,06,29,15,21,13.80
2010,06,29,15,22,13.70
2010,06,29,15,23,13.80
2010,06,29,15,24,13.80
2010,06,29,15,25,13.80
2010,06,29,15,26,13.80
2010,06,29,15,27,13.90
2010,06,29,15,28,13.90
2010,06,29,15,29,14.00
2010,06,29,15,30,14.00
2010,06,29,15,31,14.10
2010,06,29,15,32,14.10
2010,06,29,15,33,14.20
2010,06,29,15,34,14.20
2010,06,29,15,35,14.30
2010,06,29,15,36,14.30
2010,06,29,15,37,14.30
2010,06,29,15,38,14.30
2010,06,29,15,39,14.30
2010,06,29,15,40,14.30
2010,06,29,15,41,14.30
2010,06,29,15,42,14.30
2010,06,29,15,43,14.30
2010,06,29,15,44,14.30
2010,06,29,15,45,14.20
2010,06,29,15,46,14.20
2010,06,29,15,47,14.10
2010,06,29,15,48,14.10
2010,06,29,15,49,14.10
2010,06,29,15,50,14.00
2010,06,29,15,51,14.00
2010,06,29,15,52,14.00
2010,06,29,15,53,13.90
2010,06,29,15,54,13.90
2010,06,29,15,55,13.90
2010,06,29,15,56,13.90
2010,06,29,15,57,13.90
2010,06,29,15,58,13.80
2010,06,29,15,59,13.80
2010,06,29,16,00,13.80
2010,06,29,16,01,13.80
2010,06,29,16,02,13.80
2010,06,29,16,03,13.80
2010,06,29,16,04,13.80
2010,06,29,16,05,13.80
2010,06,29,16,06,13.80
2010,06,29,16,07,13.80
2010,06,29,16,08,13.90
2010,06,29,16,09,13.90
2010,06,29,16,10,14.00
2010,06,29,16,11,14.00
2010,06,29,16,12,14.00
2010,06,29,16,13,14.10
2010,06,29,16,14,14.10
2010,06,29,16,15,14.10
2010,06,29,16,16,14.20
2010,06,29,16,17,14.20
2010,06,29,16,18,14.20
2010,06,29,16,19,14.20
2010,06,29,16,20,14.20
2010,06,29,16,21,14.20
2010,06,29,16,22,14.20
2010,06,29,16,23,14.30
2010,06,29,16,24,14.30
2010,06,29,16,25,14.40
2010,06,29,16,26,14.40
2010,06,29,16,27,14.50
2010,06,29,16,28,14.50
2010,06,29,16,29,14.50
2010,06,29,16,30,14.50
2010,06,29,16,31,14.60
2010,06,29,16,32,14.60
2010,06,29,16,33,14.60
2010,06,29,16,34,14.70
2010,06,29,16,35,14.70
2010,06,29,16,36,14.80
2010,06,29,16,37,14.90
2010,06,29,16,38,14.90
2010,06,29,16,39,15.00
2010,06,29,16,40,15.00
2010,06,29,16,41,15.00
2010,06,29,16,42,15.00
2010,06,29,16,43,15.10
2010,06,29,16,44,15.20
2010,06,29,16,45,15.20
2010,06,29,16,46,15.20
2010,06,29,16,47,15.30
2010,06,29,16,48,15.30
2010,06,29,16,49,15.30
2010,06,29,16,50,15.20
2010,06,29,16,51,15.10
2010,06,29,16,52,15.00
2010,06,29,16,53,15.00
2010,06,29,16,54,15.00
2010,06,29,16,55,15.00
2010,06,29,16,56,15.00
2010,06,29,16,57,15.00
2010,06,29,16,58,15.00
2010,06,29,16,59,15.00
2010,06,29,17,00,15.10
2010,06,29,17,01,15.20
2010,06,29,17,02,15.40
2010,06,29,17,03,15.50
2010,06,29,17,04,15.60
2010,06,29,17,05,15.70
2010,06,29,17,06,15.70
2010,06,29,17,07,15.70
2010,06,29,17,08,15.70
2010,06,29,17,09,15.80
2010,06,29,17,10,15.80
2010,06,29,17,11,15.90
2010,06,29,17,12,15.90
2010,06,29,17,13,15.90
2010,06,29,17,14,15.90
2010,06,29,17,15,15.90
2010,06,29,17,16,16.00
2010,06,29,17,17,16.10
2010,06,29,17,18,16.20
2010,06,29,17,19,16.20
2010,06,29,17,20,16.30
2010,06,29,17,21,16.30
2010,06,29,17,22,16.30
2010,06,29,17,23,16.30
2010,06,29,17,24,16.30
2010,06,29,17,25,16.30
2010,06,29,17,26,16.40
2010,06,29,17,27,16.40
2010,06,29,17,28,16.50